Starlink 2547

operational
NORAD ID: 48286 Int'l Des: 2021-036 Owner: SPXS Country: US Constellation: starlink
LEOCIRCULARSTARLINK_TYPE

About Starlink 2547

Description loading...

Live Position

Loading 3D Globe...

Upcoming Passes

Altitude History

Altitude vs Time

uPlot chart will show altitude changes over time

Two-Line Element Set

1 48286U 21036L 25348.75560782 -.00000779 00000-0 -33452-4 0 9998
2 48286 53.0545 103.1711 0000988 91.1052 269.0050 15.06386577255506
Epoch: Dec 14, 2025 • Age: 22 hours

Current Status

Altitude 558.0 km
Velocity 7.58 km/s
Sub-Earth Point -32.94°S, 13.74°W
Launch Date Apr 29, 2021
Age 4.6 years
Type internet

Technical Details

Classification Payload
Mass 260.00 kg
Dry Mass 248.00 kg
Total Mass 260.00 kg
Length 0.20 m
Diameter 2.80 m
Span 9.00 m
Shape Box + pan
Manufacturer SPXS
Bus Type Starlink
Phase Status In Orbit
Owner/State SPXS/US

Large Constellations

Loading constellations...